PulseSat

PulseSat

INTELSAT 906 (IS-906)

Last updated on Feb. 20, 2019, 3:06 a.m. UTC

1 27513U 02041A   19050.87835535 -.00000006  00000-0  00000+0 0  9990
2 27513   0.0325 241.1687 0002266 101.0696 187.6136  1.00270635 60156
UTC
Height (km)
Latitude
Longitude
Inclination
Orbital Period

Next 30 passes for location: Hong Kong

Rise time Rise Azimuth (degrees) Set time Set Azimuth (degrees) Duration Max altitude (degrees)

No matching passes for this satellites

PulseSat

PulseSat is the new satellites software and hardware trackering solution by Pulsely.
Satellite Two Line Element Set source: US Air Force Space Command

Download PulseSat for iOS
© 2017 Pulsely Limited